Inquirer Daily News

Weather

Get conditions and forecasts for any City, State, ZIP code or Country:  
Northeast Philadelphia, PA
on Sunday, February 24, 2013

Sunday
Previous Day Next Day
Daily Summary
 ActualAverage (KTTN)Record (KTTN)
Temperature
Mean Temperature °F 36°F  
Max Temperature 46°F 45°F 74°F (1985)
Min Temperature 32°F 27°F -2°F (1889)
Degree Days
Heating Degree Days 26 29  
Month to date heating degree days 753  
Since 1 July heating degree days 3699  
Cooling Degree Days 0 0  
Month to date cooling degree days 0  
Year to date cooling degree days 0  
Moisture
Dew Point 30°F   
Average Humidity 73    
Maximum Humidity 96    
Minimum Humidity 51    
Precipitation
Precipitation 0.00 in 0.09 in 1.67 in (1977)
Month to date precipitation 1.93  
Year to date precipitation 5.09  
Wind
Wind Speed 9 mph   
Max Wind Speed 21 mph   
Max Gust Speed 28 mph   
Visibility 10 miles   
Events     

Key: T is trace of precipitation, MM is missing value
Source: NWS Daily Summary
Time(EST)TemperatureDew PointHumidity Pressure Visibility Wind DirectionWind SpeedGust SpeedPrecipitationEvents Conditions
12:54 AM 37.9°F 36.0°F 93% 29.83 in 4.0 miles North 8.1 mph - N/A   Overcast
1:54 AM 37.0°F 36.0°F 96% 29.83 in 6.0 miles North 8.1 mph - N/A   Overcast
2:54 AM 37.9°F 36.0°F 93% 29.83 in 10.0 miles North 5.8 mph - N/A   Overcast
3:03 AM 37.4°F 35.6°F 93% 29.82 in 10.0 miles NNE 6.9 mph - N/A   Overcast
3:54 AM 37.0°F 36.0°F 96% 29.80 in 10.0 miles NNW 8.1 mph - N/A   Overcast
4:54 AM 37.9°F 36.0°F 93% 29.81 in 10.0 miles NNW 8.1 mph - N/A   Overcast
5:35 AM 37.4°F 35.6°F 93% 29.81 in 10.0 miles NNW 6.9 mph - N/A   Overcast
5:54 AM 37.9°F 35.1°F 89% 29.81 in 10.0 miles North 10.4 mph - N/A   Overcast
6:39 AM 37.4°F 35.6°F 93% 29.81 in 10.0 miles NNW 9.2 mph - N/A   Scattered Clouds
6:54 AM 36.0°F 34.0°F 93% 29.80 in 10.0 miles North 6.9 mph - N/A   Partly Cloudy
7:54 AM 39.0°F 36.0°F 89% 29.82 in 10.0 miles NNW 6.9 mph - N/A   Mostly Cloudy
8:44 AM 39.2°F 37.4°F 93% 29.83 in 10.0 miles WNW 8.1 mph - N/A   Mostly Cloudy
8:54 AM 42.1°F 37.0°F 82% 29.83 in 10.0 miles WNW 9.2 mph - N/A   Mostly Cloudy
9:49 AM 42.8°F 37.4°F 81% 29.82 in 10.0 miles NNW 11.5 mph 23.0 mph N/A   Scattered Clouds
9:54 AM 44.1°F 37.0°F 76% 29.83 in 10.0 miles NW 9.2 mph - N/A   Scattered Clouds
10:54 AM 46.9°F 32.0°F 56% 29.84 in 10.0 miles NW 15.0 mph 25.3 mph N/A   Mostly Cloudy
11:54 AM 46.0°F 30.9°F 56% 29.83 in 10.0 miles NW 11.5 mph 19.6 mph N/A   Mostly Cloudy
12:54 PM 46.0°F 30.0°F 54% 29.83 in 10.0 miles NW 11.5 mph - N/A   Overcast
1:54 PM 45.0°F 28.0°F 52% 29.82 in 10.0 miles NW 20.7 mph 26.5 mph N/A   Overcast
2:54 PM 43.0°F 26.1°F 51% 29.84 in 10.0 miles NW 17.3 mph 25.3 mph N/A   Overcast
3:54 PM 41.0°F 24.1°F 51% 29.87 in 10.0 miles WNW 17.3 mph 25.3 mph N/A   Mostly Cloudy
4:54 PM 39.0°F 23.0°F 53% 29.90 in 10.0 miles NW 12.7 mph 25.3 mph N/A   Overcast
5:54 PM 37.9°F 23.0°F 55% 29.94 in 10.0 miles NW 17.3 mph 27.6 mph N/A   Overcast
6:54 PM 36.0°F 21.0°F 55% 29.97 in 10.0 miles WNW 11.5 mph 20.7 mph N/A   Clear
7:54 PM 35.1°F 19.9°F 54% 30.00 in 10.0 miles WNW 10.4 mph - N/A   Clear
8:54 PM 34.0°F 19.9°F 56% 30.02 in 10.0 miles WNW 9.2 mph - N/A   Partly Cloudy
9:54 PM 32.0°F 19.0°F 59% 30.04 in 10.0 miles WNW 5.8 mph - N/A   Clear
10:54 PM 33.1°F 19.0°F 56% 30.03 in 10.0 miles NW 8.1 mph - N/A   Clear
11:54 PM 32.0°F 18.0°F 56% 30.05 in 10.0 miles NW 6.9 mph - N/A   Clear
Astronomy
Sunrise:06:40 AM (EST) Moon Rise:04:55 PM (EST)
Sunset:05:46 PM (EST) Moon Set:05:36 AM (EST)
Moon Phase
Feb. 24 Feb. 25 Mar. 04 Mar. 11 Mar. 19

Copyright © 2014 The Weather Underground, Inc.